Flag for Germany Weather past 2 weeks in Frankfurt, Hesse, Germany

Now
63 °F

Clear.


Feels Like: 63 °F
Forecast: 56 / 81 °F
Wind: 6 mph from Northwest

Location: Frankfurt-M-Flughafen Airport

Current Time: Jul 31, 2014 at 6:12:51 AM

Latest Report: Jul 31, 2014 at 5:50 AM


Visibility: 10 mi

Pressure: 29.98 "Hg

Humidity: 83%

Dew point: 57 °F

Location of FrankfurtLocation

Historic Weather in Frankfurt — Graph

°F

Frankfurt temperature yesterday

Maximum temperature yesterday: 73 °F (at 3:50 PM)
Minimum temperature yesterday: 66 °F (at 12:20 AM)
Average temperature yesterday: 70 °F

Past Weeks' High & Low Weather Summary

 TemperatureHumidityPressure
High93 °F (Jul 19, 4:20 PM)100% (Jul 17, 4:50 AM)30.18 "Hg (Jul 17, 4:50 AM)
Low59 °F (Jul 17, 4:50 AM)23% (Jul 18, 6:20 PM)29.71 "Hg (Jul 29, 4:50 PM)
Average73 °F68%29.94 "Hg
* Reported Jul 16 4:20 AM — Jul 31 4:50 AM, Frankfurt, Weather by CustomWeather, © 2014

Note: Actual official high and low records may vary slightly from our data, if they occured in-between our weather recording intervals... More about our weather records

Advertising

Frankfurt weather history for previous 24 hours

 ConditionsComfort  
Time TempWeatherWind HumidityBarometerVisibility
4:50 AM
Jul 31
64 °FClear.5 mph78%29.98 "Hg10 mi
4:20 AM64 °FPassing clouds.7 mph78%29.98 "HgN/A
3:50 AM66 °FPassing clouds.3 mph78%29.98 "HgN/A
3:20 AM64 °FPassing clouds.2 mph83%29.98 "HgN/A
2:50 AM64 °FClear.1 mph83%29.98 "Hg10 mi
2:20 AM64 °FClear.1 mph83%29.98 "Hg10 mi
1:50 AM64 °FClear.1 mph83%29.98 "Hg10 mi
1:20 AM66 °FClear.5 mph78%29.95 "Hg10 mi
12:50 AM68 °FClear.5 mph73%29.95 "Hg10 mi
12:20 AM68 °FClear.6 mph73%29.95 "Hg10 mi
11:50 PM
Jul 30
68 °FClear.6 mph73%29.95 "Hg10 mi
11:20 PM70 °FClear.3 mph69%29.95 "Hg10 mi
10:50 PM70 °FClear.6 mph64%29.95 "Hg10 mi
10:20 PM70 °FClear.6 mph64%29.95 "Hg10 mi
9:50 PM70 °FSunny.6 mph64%29.95 "Hg10 mi
9:20 PM72 °FPartly sunny.6 mph61%29.92 "HgN/A
8:50 PM72 °FPartly sunny.7 mph65%29.92 "HgN/A
8:20 PM72 °FPartly sunny.5 mph65%29.92 "HgN/A
7:50 PM72 °FPartly sunny.5 mph69%29.89 "HgN/A
7:20 PM72 °FPartly sunny.5 mph69%29.89 "HgN/A
6:50 PM72 °FBroken clouds.7 mph69%29.89 "HgN/A
6:20 PM72 °FBroken clouds.9 mph69%29.89 "HgN/A
5:50 PM72 °FBroken clouds.9 mph69%29.89 "HgN/A
5:20 PM72 °FPartly sunny.9 mph69%29.89 "HgN/A
4:50 PM72 °FPartly sunny.8 mph69%29.89 "HgN/A
4:20 PM72 °FPartly sunny.10 mph73%29.89 "HgN/A
3:50 PM73 °FPartly sunny.8 mph69%29.86 "HgN/A
3:20 PM72 °FBroken clouds.10 mph73%29.86 "HgN/A
2:50 PM72 °FBroken clouds.10 mph73%29.86 "HgN/A
2:20 PM72 °FBroken clouds.12 mph73%29.86 "HgN/A
1:50 PM72 °FBroken clouds.13 mph78%29.83 "HgN/A
1:20 PM72 °FBroken clouds.14 mph83%29.83 "HgN/A
12:50 PM72 °FBroken clouds.12 mph83%29.83 "HgN/A
12:20 PM72 °FBroken clouds.10 mph78%29.83 "HgN/A
11:50 AM72 °FBroken clouds.7 mph83%29.83 "HgN/A
11:20 AM72 °FBroken clouds.7 mph83%29.80 "HgN/A
10:50 AM70 °FPartly sunny.8 mph94%29.80 "HgN/A
10:20 AM70 °FPartly sunny.3 mph88%29.83 "HgN/A
9:50 AM70 °FLight rain. Partly sunny.2 mph83%29.80 "HgN/A
9:20 AM68 °FLight rain. Mostly cloudy.2 mph88%29.80 "HgN/A
8:50 AM68 °FLight rain. Mostly cloudy.2 mph94%29.80 "HgN/A
8:20 AM68 °FLight rain. Mostly cloudy.5 mph94%29.80 "HgN/A
7:50 AM68 °FLight rain. More clouds than sun.6 mph94%29.77 "HgN/A
7:20 AM68 °FLight rain. More clouds than sun.3 mph94%29.77 "HgN/A
6:50 AM68 °FLight rain. Mostly cloudy.5 mph94%29.77 "HgN/A
6:20 AM68 °FLight rain. Passing clouds.3 mph94%29.77 "HgN/A
Weather by CustomWeather, © 2014

See weather overviewHow to use our weather pages